Regional Weather Roundup
Issued by NWS

Home | Current Version | Previous Version | Text Only | Print | Product List | Glossary Off
Versions: 1 2 3 4 5 6 7 8 9 10 11 12 13 14 15 16 17 18 19 20 21 22 23 24 25 26 27 28 29 30 31 32 33 34 35 36 37 38 39 40 41 42 43 44 45 46 47 48 49 50

000
ASUS43 KOAX 060002
RWRNE

WEATHER ROUNDUP FOR NEBRASKA
NATIONAL WEATHER SERVICE OMAHA NE
700 PM CDT TUE MAY 05 2015

NOTES: SATELLITE DATA IS BEING USED TO AUGMENT CLOUD COVER ABOVE
       12000 FEET.
       "FAIR" INDICATES FEW OR NO CLOUDS BELOW 12,000 FEET WITH NO
       SIGNIFICANT WEATHER AND/OR OBSTRUCTIONS TO VISIBILITY.

  * THESE STATIONS DO NOT REPORT WEATHER SUCH AS RAIN...SNOW OR FOG.

NEZ001>004-019>022-054>056-060100-
NEBRASKA PANHANDLE

CITY           SKY/WX    TMP DP  RH WIND       PRES   REMARKS
SCOTTSBLUFF    CLOUDY    57  52  83 SE16      29.85F
6HR MIN TEMP:  56; 6HR MAX TEMP:  60; 6HR PCP: TRACE;

ALLIANCE       LGT RAIN  55  54  96 MISG      29.87F
6HR MIN TEMP:  55; 6HR MAX TEMP:  59; 6HR PCP:  0.02;

CHADRON        CLOUDY    62  50  64 S12       29.85F
6HR MIN TEMP:  59; 6HR MAX TEMP:  67;

KIMBALL        RAIN      53  52  97 E10       29.84F
SIDNEY         LGT RAIN  54  53  97 E14       29.86F
6HR MIN TEMP:  51; 6HR MAX TEMP:  54; 6HR PCP:  0.17;

$$

NEZ057>060-069>072-079>082-060100-
SOUTHWEST NEBRASKA

CITY           SKY/WX    TMP DP  RH WIND       PRES   REMARKS
NORTH PLATTE   CLOUDY    62  58  86 E6        29.88F
6HR MIN TEMP:  57; 6HR MAX TEMP:  62; 6HR PCP:  0.18;

IMPERIAL       LGT RAIN  57  53  86 SE23G35   29.84F
6HR MIN TEMP:  55; 6HR MAX TEMP:  60; 6HR PCP:  0.30;

MCCOOK         CLOUDY    62  52  69 SE24G33   29.86S
6HR MIN TEMP:  61; 6HR MAX TEMP:  65; 6HR PCP:  0.14;

$$

NEZ005>010-023>029-035>040-094-060100-
NORTH CENTRAL NEBRASKA

CITY           SKY/WX    TMP DP  RH WIND       PRES   REMARKS
VALENTINE      CLOUDY    61  58  90 SE8       29.91F
6HR MIN TEMP:  55; 6HR MAX TEMP:  63; 6HR PCP:  0.04;

AINSWORTH      CLOUDY    62  61  96 E6        29.92S THUNDER FOG
BROKEN BOW     CLOUDY    66  58  75 S6        29.89F
6HR MIN TEMP:  61; 6HR MAX TEMP:  70; 6HR PCP:  0.01;

ORD            CLOUDY    71  50  47 SE17G25   29.89S
6HR MIN TEMP:  62; 6HR MAX TEMP:  73;

$$

NEZ041-046>049-061>064-073>077-083>087-060100-
SOUTH CENTRAL NEBRASKA

CITY           SKY/WX    TMP DP  RH WIND       PRES   REMARKS
GRAND ISLAND   CLOUDY    71  50  47 S16G22    29.92F
6HR MIN TEMP:  67; 6HR MAX TEMP:  75;

AURORA         CLOUDY    72  49  44 SE16      29.92F
HASTINGS       CLOUDY    71  51  49 SE15G30   29.91F
6HR MIN TEMP:  71; 6HR MAX TEMP:  76;

KEARNEY *      CLOUDY    70  50  49 SE21      29.91S
$$

NEZ011>018-030>034-042>045-060100-
NORTHEAST NEBRASKA

CITY           SKY/WX    TMP DP  RH WIND       PRES   REMARKS
NORFOLK        CLOUDY    73  56  54 SE16      29.94F
6HR MIN TEMP:  69; 6HR MAX TEMP:  74;

COLUMBUS *     CLOUDY    72  55  56 SE10      29.96S
TEKAMAH        CLOUDY    76  61  59 SE13      29.97S
6HR MIN TEMP:  71; 6HR MAX TEMP:  78; 6HR PCP: TRACE;

$$

NEZ050>053-065>068-078-088>093-060100-
SOUTHEAST NEBRASKA

CITY           SKY/WX    TMP DP  RH WIND       PRES   REMARKS
LINCOLN        CLOUDY    74  54  49 SE13G22   29.95F
6HR MIN TEMP:  72; 6HR MAX TEMP:  78;

OMAHA EPPLEY   CLOUDY    75  59  57 SE13      29.97F
6HR MIN TEMP:  72; 6HR MAX TEMP:  77;

FALLS CITY     PTSUNNY   75  56  51 SE10      29.96F
6HR MIN TEMP:  75; 6HR MAX TEMP:  78;

PLATTSMOUTH    CLOUDY    73  57  55 SE8G16    29.98F
$$

NEZ044-045-051>053-067-060100-
OMAHA AREA

CITY           SKY/WX    TMP DP  RH WIND       PRES   REMARKS
OMAHA EPPLEY   CLOUDY    75  59  57 SE13      29.97F
6HR MIN TEMP:  72; 6HR MAX TEMP:  77;

PLATTSMOUTH    CLOUDY    73  57  55 SE8G16    29.98F
$$


USA.gov is the U.S. government's official web portal to all federal, state and local government web resources and services.